Regional Weather Roundup
Issued by NWS Little Rock, AR

Home | Current Version | Previous Version | Text Only | Print | Product List | Glossary Off
Versions: 1 2 3 4 5 6 7 8 9 10 11 12 13 14 15 16 17 18 19 20 21 22 23 24 25 26 27 28 29 30 31 32 33 34 35 36 37 38 39 40 41 42 43 44 45 46 47 48 49 50

000
ASUS44 KLZK 260405
RWRLZK

WEATHER ROUNDUP FOR ARKANSAS
NATIONAL WEATHER SERVICE LITTLE ROCK AR
1100 PM CDT SAT MAR 25 2017

NOTE: "FAIR" INDICATES FEW OR NO CLOUDS BELOW 12,000 FEET WITH NO
SIGNIFICANT WEATHER AND/OR OBSTRUCTIONS TO VISIBILITY.

ARZ001-003-010-029-260500-
NORTHWEST ARKANSAS

CITY           SKY/WX    TMP DP  RH WIND       PRES   REMARKS
FAYETTEVILLE   CLOUDY    47  46  97 SW3       29.95S
FORT SMITH     CLOUDY    53  45  74 CALM      29.95S
HARRISON       CLOUDY    48  44  86 W7        29.94S
BENTONVILLE    CLOUDY    46  43  87 W5        29.95S
ROGERS         CLOUDY    46  45  96 W7        29.94F
SILOAM SPGS    CLOUDY    46  43  87 W5        29.95S
HIGHFILL       CLOUDY    47  46  97 SW6       29.94S
$$

ARZ004-005-016-260500-
NORTH CENTRAL ARKANSAS

CITY           SKY/WX    TMP DP  RH WIND       PRES   REMARKS
BATESVILLE     CLOUDY    52  46  82 W3        29.93F
FLIPPIN        CLOUDY    52  43  71 W6        29.92S
MTN HOME       CLOUDY    50  45  83 VRB3      29.93R
$$

ARZ040-041-260500-
WEST CENTRAL ARKANSAS

CITY           SKY/WX    TMP DP  RH WIND       PRES   REMARKS
MENA           CLEAR     52  52 100 E3        29.96S
MOUNT IDA      PTCLDY    53  48  83 N3        29.93S
$$

ARZ009-017-025-026-028-260500-
NORTHEAST ARKANSAS

CITY           SKY/WX    TMP DP  RH WIND       PRES   REMARKS
CORNING        FAIR      55  54  94 W8        29.92R
JONESBORO      PTCLDY    59  48  67 W8        29.92R
NEWPORT        PTCLDY    55  48  77 SW6       29.93S
WALNUT RIDGE   CLOUDY    55  48  76 W9        29.92R
BLYTHEVILLE    CLOUDY    59  58  96 S6        29.93R
$$

ARZ022-023-033-042-044-260500-
CENTRAL ARKANSAS

CITY           SKY/WX    TMP DP  RH WIND       PRES   REMARKS
LITTLE ROCK    PTCLDY    52  48  86 NW7       29.96R
N LITTLE ROCK    N/A     52  47  82 N5        29.96R
JACKSONVILLE   CLEAR     53  47  78 W6        29.95R
CONWAY           N/A     52  48  87 CALM      29.95R
SEARCY         CLEAR     52  48  86 W3        29.96S
HOT SPRINGS    CLEAR     54  50  86 CALM      29.95R
RUSSELLVILLE   CLOUDY    51  46  83 W3        29.95S
CLINTON        CLOUDY    48  46  93 CALM      29.95R
$$

ARZ036-260500-
EAST ARKANSAS

CITY           SKY/WX    TMP DP  RH WIND       PRES   REMARKS
WEST MEMPHIS   MOCLDY    60  60 100 CALM      29.92S
$$

ARZ050-053-066-070-073-260500-
SOUTHWEST ARKANSAS

CITY           SKY/WX    TMP DP  RH WIND       PRES   REMARKS
ARKADELPHIA    FAIR      56  54  93 NE7       29.94S
CAMDEN         CLEAR     54  50  87 CALM      29.94S
TEXARKANA      CLEAR     58  51  78 CALM      29.94S
EL DORADO      CLEAR     56  53  90 CALM      29.94S
DE QUEEN       CLEAR     54  54 100 CALM      29.93R
$$

ARZ056-057-069-260500-
SOUTHEAST ARKANSAS

CITY           SKY/WX    TMP DP  RH WIND       PRES   REMARKS
PINE BLUFF     CLEAR     57  52  83 N8        29.95R
STUTTGART      CLEAR     54  45  71 NW7       29.96S
MONTICELLO     CLEAR     56  52  86 CALM      29.93S

$$





USA.gov is the U.S. government's official web portal to all federal, state and local government web resources and services.